Tracking 34305 objects as of 7-Jun-2026
HD Live streaming from Space Station
objects crossing your sky now

OBJECT D

Track OBJECT D now!
10-day predictions


NORAD ID: 64090
Int'l Code: 2025-108D
Perigee: 507.8 km
Apogee: 525.8 km
Inclination: 97.5 °
Period: 94.8 minutes
Semi major axis: 6887 km
RCS: Unknown
Launch date: May 21, 2025
Source: People's Republic of China (PRC)
Launch site: Jiuquan Satellite Launch Center, China (JSC)
Your satellite tracking list
Your tracking list is empty




NASA's NSSDC Master Catalog

Two Line Element Set (TLE):
1 64090U 25108D   26158.23526948  .00006239  00000-0  30304-3 0  9999
2 64090  97.4685 233.9834 0013100  45.7838 314.4470 15.18736168 57856
Source of the keplerian elements: AFSPC